This is the latest recevied weather packets stored in our database for station/object PU5BHV. If no packets are shown the sender has not sent any weather packets the latest 10 day(s).
| Time | Temp. | Humidity | Pressure | Rain* | Wind** | Luminosity | Snow |
|---|---|---|---|---|---|---|---|
| 1778163745 | 27.22° C | 75% | 1013 hPa | 0 mm | - | 703 W/m² | - |
| 1778163441 | 26.67° C | 78% | 1013.2 hPa | 0 mm | - | 553 W/m² | - |
| 1778163139 | 26.67° C | 78% | 1013 hPa | 0 mm | - | 201 W/m² | - |
| 1778162834 | 26.67° C | 78% | 1013.2 hPa | 0 mm | - | 534 W/m² | - |
| 1778162532 | 26.67° C | 78% | 1013.1 hPa | 0 mm | - | 761 W/m² | - |
| 1778162229 | 26.11° C | 81% | 1013.3 hPa | 0 mm | - | 672 W/m² | - |
| 1778161926 | 25.56° C | 82% | 1013.5 hPa | 0 mm | - | 416 W/m² | - |
| 1778161622 | 25.56° C | 83% | 1013.4 hPa | 0 mm | - | 213 W/m² | - |
| 1778161319 | 25.56° C | 83% | 1013.6 hPa | 0 mm | - | 377 W/m² | - |
| 1778161015 | 25° C | 83% | 1013.8 hPa | 0 mm | - | 212 W/m² | - |
| 1778160712 | 25° C | 83% | 1014 hPa | 0 mm | - | 235 W/m² | - |
| 1778160409 | 25.56° C | 84% | 1013.9 hPa | 0 mm | - | 216 W/m² | - |
| 1778160105 | 25° C | 84% | 1013.9 hPa | 0 mm | - | 206 W/m² | - |
| 1778159803 | 25° C | 83% | 1014.1 hPa | 0 mm | - | 267 W/m² | - |
| 1778159500 | 25° C | 84% | 1013.9 hPa | 0 mm | - | 348 W/m² | - |
| 1778159196 | 25° C | 84% | 1013.9 hPa | 0 mm | - | 177 W/m² | - |
| 1778158894 | 25° C | 83% | 1014 hPa | 0 mm | - | 179 W/m² | - |
| 1778158593 | 25.56° C | 82% | 1013.9 hPa | 0 mm | - | 184 W/m² | - |
| 1778158290 | 25.56° C | 82% | 1014.1 hPa | 0 mm | - | 198 W/m² | - |
| 1778157986 | 25.56° C | 81% | 1014.4 hPa | 0 mm | - | 402 W/m² | - |
| 1778157684 | 25.56° C | 83% | 1014.5 hPa | 0 mm | - | 432 W/m² | - |
| 1778157382 | 26.11° C | 82% | 1014.2 hPa | 0 mm | - | 394 W/m² | - |
| 1778157079 | 25.56° C | 83% | 1014.2 hPa | 0 mm | - | 393 W/m² | - |
| 1778156774 | 25.56° C | 84% | 1014.1 hPa | 0 mm | - | 222 W/m² | - |
| 1778156470 | 25.56° C | 84% | 1014.3 hPa | 0 mm | - | 329 W/m² | - |
* Rain latest hour (hover to see other rain measurements)
** Current wind speed in m/s (hover to see current wind gust speed)